NOAA 16 DEB, 41288

Orbit data source: Space-Track

NOAA 16 DEB, 41288 is space debris in SSO originally from a launch on Thu, 21 Sep 2000 UTC launched from the Air Force Western Test Range (AFWTR). Debris objects in space refer to the collection of defunct objects orbiting the Earth. Examples of debris include non-operational satellites, rocket bodies, and fragments generated from explosions, collisions, or faulty payload assembly.

Loading next visibility...
NOAA 16 DEB details
Identifier
41288, 2000-055GQ
Orbit
SSO
Last TLE update18 hours ago
Origin
Flag of USNOAA (US)
ManufacturerUnknown
MissionSpacecraft
Bus & MotorUnknown
MassUnknown
Launch date (UTC)
2000-09-21 (24 years ago)
Launch vehicleUnknown
Launch site
Air Force Western Test Range (AFWTR)
Object type
Payload
Rocket body
Debris
Shape & HBRUnknown
Radar Cross SectionSmall (<0.1 m²)

Expand to show TLE details & history

TLE from 18 hours ago
0 NOAA 16 DEB
1 41288U 00055GQ  24346.17632080  .00012084  00000-0  51561-2 0  9994
2 41288  98.9036  69.5782 0025924  41.7236 318.5914 14.24997902461191
Epoch: 2024-12-11T04:13Z
Definitive object data (Epoch: 2024-12-11T04:13:54.117Z)
Latitude0.00003°
Longitude-74.27206°
Altitude797.46 km
Speed7.462 km/s
True Right ascension04h 38m 18s
True Declination0° 00' 00"
Sunlit
Object was in full shadow at TLE epoch
Visualization TLE readout
Latitude26.87494°
Longitude110.99954°
Altitude819.013 km
Speed7.442 km/s
Apparent Right ascension13h 42m 45s
Apparent Declination-9° 49' 54"
Sunlit
Object is in daylight
Visualization observer readout
Local Sidereal Time20:11:39
Azimuth266.987° W
Elevation-11.806°
Doppler factor1
Orbital elements
Apogee altitude824.284 km
Perigee altitude787.038 km
Semi-major axis7,183.798 km
Eccentricity0.0025924
Inclination98.9036°
RAAN69.5782°
Arg. of periapsis41.7236°
True anomaly318.39443°
Mean anomaly318.5914°
Eccentric anomaly318.49297°
Mean motion3.56461 °/min
BSTAR0.0051561
Orbital period100.99 mins
Loading maneuver chart data...
Loading historical data...
Loading historical data...
Loading historical data...
Loading historical data...
Loading historical data...
Loading historical data...
Loading historical data...

NOAA 16 DEB Visibility forecast

Observer location: undefined°, undefined

Span
Click to sort rows by Start time (UTC) header in descending order
Start Az.
Max El. time (UTC)
Max El. Az.
Max El.
End time (UTC)
End Az.
10 mins2024-12-12 05:36:44.709Z160.773° S2024-12-12 05:41:44.709Z102.231° ESE44.525°2024-12-12 05:46:44.709Z348.63° N
7 mins2024-12-12 17:54:44.709Z46.788° ENE2024-12-12 17:57:44.709Z95.717° ESE27.389°2024-12-12 18:01:44.709Z154.267° SSE
7 mins2024-12-12 19:34:44.709Z340.366° N2024-12-12 19:37:44.709Z288.136° WNW27.806°2024-12-12 19:41:44.709Z233.909° WSW
|